Location: Clayton (historical)
(34.0300°N, 118.0259°W)
Time: 00:34:12
(UTC+00:00)

Envisat - Pass Details

Date: 31 January 2021
Orbit: 764 x 766 km, 98.1° (Epoch: 06 March)

Event Time Altitude Azimuth Distance (km) Brightness Sun altitude
Rises 02:02:53 0° 208° (SSW) 3,218 6.9 -9.1°
Reaches altitude 10° 02:06:04 10° 230° (SW) 2,297 6.6 -9.7°
Maximum altitude 02:09:07 16° 267° (W) 1,919 6.4 -10.3°
Drops below altitude 10° 02:12:10 10° 304° (NW) 2,305 6.1 -10.9°
Sets 02:15:24 0° 326° (NW) 3,236 6.5 -11.6°
